Time,TemperatureF,DewpointF,PressureIn,WindDirection,WindDirectionDegrees,WindSpeedMPH,WindSpeedGustMPH,Humidity,HourlyPrecipIn,Conditions,Clouds,dailyrainin,SolarRadiationWatts/m^2,SoftwareType,DateUTC
2013-08-12 01:00:00,64.0,64.0,-100.00,ESE,112,0.0,-999.0,99,-99.99,,,-99.99,0.000000,,2013-08-12 05:00:00,
2013-08-12 01:32:00,64.0,64.0,-100.00,ESE,112,0.0,-999.0,99,-99.99,,,-99.99,0.000000,,2013-08-12 05:32:00,
2013-08-12 01:43:00,64.0,64.0,-100.00,ESE,112,0.0,-999.0,99,-99.99,,,-99.99,0.000000,,2013-08-12 05:43:00,
2013-08-12 01:52:00,64.0,64.0,-100.00,ESE,112,0.0,-999.0,99,-99.99,,,-99.99,0.000000,,2013-08-12 05:52:00,
2013-08-12 02:00:00,64.0,62.0,-100.00,South,180,1.0,-999.0,94,-99.99,,,-99.99,0.000000,,2013-08-12 06:00:00,
2013-08-12 02:42:00,64.0,62.0,-100.00,South,180,1.0,-999.0,94,-99.99,,,-99.99,0.000000,,2013-08-12 06:42:00,
2013-08-12 02:52:00,64.0,62.0,-100.00,South,180,1.0,-999.0,94,-99.99,,,-99.99,0.000000,,2013-08-12 06:52:00,
2013-08-12 03:00:00,65.0,63.0,-100.00,South,180,1.0,-999.0,94,-99.99,,,-99.99,0.000000,,2013-08-12 07:00:00,
2013-08-12 03:33:00,65.0,63.0,-100.00,South,180,1.0,-999.0,94,-99.99,,,-99.99,0.000000,,2013-08-12 07:33:00,
2013-08-12 03:43:00,65.0,63.0,-100.00,South,180,1.0,-999.0,94,-99.99,,,-99.99,0.000000,,2013-08-12 07:43:00,
2013-08-12 03:53:00,65.0,63.0,-100.00,South,180,1.0,-999.0,94,-99.99,,,-99.99,0.000000,,2013-08-12 07:53:00,
2013-08-12 04:00:00,65.0,64.0,-100.00,East,90,1.0,-999.0,95,-99.99,,,-99.99,0.000000,,2013-08-12 08:00:00,
2013-08-12 04:33:00,65.0,64.0,-100.00,East,90,1.0,-999.0,95,-99.99,,,-99.99,0.000000,,2013-08-12 08:33:00,
2013-08-12 04:43:00,65.0,64.0,-100.00,East,90,1.0,-999.0,95,-99.99,,,-99.99,0.000000,,2013-08-12 08:43:00,
2013-08-12 04:53:00,65.0,64.0,-100.00,East,90,1.0,-999.0,95,-99.99,,,-99.99,0.000000,,2013-08-12 08:53:00,
2013-08-12 05:00:00,65.0,65.0,-100.00,SE,135,0.0,-999.0,98,-99.99,,,-99.99,0.000000,,2013-08-12 09:00:00,
2013-08-12 05:32:00,65.0,65.0,-100.00,SE,135,0.0,-999.0,98,-99.99,,,-99.99,0.000000,,2013-08-12 09:32:00,
2013-08-12 05:43:00,65.0,65.0,-100.00,SE,135,0.0,-999.0,98,-99.99,,,-99.99,0.000000,,2013-08-12 09:43:00,
2013-08-12 05:53:00,65.0,65.0,-100.00,SE,135,0.0,-999.0,98,-99.99,,,-99.99,0.000000,,2013-08-12 09:53:00,
2013-08-12 06:00:00,65.0,65.0,-100.00,South,180,1.0,-999.0,99,-99.99,,,-99.99,0.000000,,2013-08-12 10:00:00,
2013-08-12 06:32:00,65.0,65.0,-100.00,South,180,1.0,-999.0,99,-99.99,,,-99.99,0.000000,,2013-08-12 10:32:00,
2013-08-12 06:43:00,65.0,65.0,-100.00,South,180,1.0,-999.0,99,-99.99,,,-99.99,0.000000,,2013-08-12 10:43:00,
2013-08-12 06:52:00,65.0,65.0,-100.00,South,180,1.0,-999.0,99,-99.99,,,-99.99,0.000000,,2013-08-12 10:52:00,
2013-08-12 08:00:00,66.0,65.0,-100.00,SSE,157,1.0,-999.0,97,0.08,,,-99.99,9.280000,,2013-08-12 12:00:00,
2013-08-12 08:32:00,66.0,65.0,-100.00,SSE,157,1.0,-999.0,97,0.08,,,-99.99,9.280000,,2013-08-12 12:32:00,
2013-08-12 08:43:00,66.0,65.0,-100.00,SSE,157,1.0,-999.0,97,0.08,,,-99.99,9.280000,,2013-08-12 12:43:00,
2013-08-12 08:52:00,66.0,65.0,-100.00,SSE,157,1.0,-999.0,97,0.08,,,-99.99,9.280000,,2013-08-12 12:52:00,
2013-08-12 10:00:00,67.0,67.0,-100.00,East,90,1.0,-999.0,101,0.02,,,-99.99,110.199997,,2013-08-12 14:00:00,
2013-08-12 10:32:00,67.0,67.0,-100.00,East,90,1.0,-999.0,101,0.02,,,-99.99,110.199997,,2013-08-12 14:32:00,
2013-08-12 10:42:00,67.0,67.0,-100.00,East,90,1.0,-999.0,101,0.02,,,-99.99,110.199997,,2013-08-12 14:42:00,
2013-08-12 10:53:00,67.0,67.0,-100.00,East,90,1.0,-999.0,101,0.02,,,-99.99,110.199997,,2013-08-12 14:53:00,
2013-08-12 11:00:00,68.0,68.0,-100.00,SE,135,1.0,-999.0,101,0.02,,,-99.99,153.119995,,2013-08-12 15:00:00,
2013-08-12 11:43:00,68.0,68.0,-100.00,SE,135,1.0,-999.0,101,0.02,,,-99.99,153.119995,,2013-08-12 15:43:00,
2013-08-12 11:52:00,68.0,68.0,-100.00,SE,135,1.0,-999.0,101,0.02,,,-99.99,153.119995,,2013-08-12 15:52:00,
2013-08-12 12:00:00,72.0,70.0,-100.00,SSE,157,3.0,-999.0,92,-99.99,,,-99.99,443.119995,,2013-08-12 16:00:00,
2013-08-12 12:43:00,72.0,70.0,-100.00,SSE,157,3.0,-999.0,92,-99.99,,,-99.99,443.119995,,2013-08-12 16:43:00,
2013-08-12 12:53:00,72.0,70.0,-100.00,SSE,157,3.0,-999.0,92,-99.99,,,-99.99,443.119995,,2013-08-12 16:53:00,
2013-08-12 13:00:00,74.0,69.0,-100.00,SW,225,3.0,-999.0,84,-99.99,,,-99.99,367.720001,,2013-08-12 17:00:00,
2013-08-12 13:43:00,74.0,69.0,-100.00,SW,225,3.0,-999.0,84,-99.99,,,-99.99,367.720001,,2013-08-12 17:43:00,
2013-08-12 13:52:00,74.0,69.0,-100.00,SW,225,3.0,-999.0,84,-99.99,,,-99.99,367.720001,,2013-08-12 17:52:00,
2013-08-12 14:00:00,77.0,67.0,-100.00,WSW,247,4.0,-999.0,72,-99.99,,,-99.99,680.919983,,2013-08-12 18:00:00,
2013-08-12 14:43:00,77.0,67.0,-100.00,WSW,247,4.0,-999.0,72,-99.99,,,-99.99,680.919983,,2013-08-12 18:43:00,
2013-08-12 14:52:00,77.0,67.0,-100.00,WSW,247,4.0,-999.0,72,-99.99,,,-99.99,680.919983,,2013-08-12 18:52:00,
2013-08-12 15:00:00,80.0,66.0,-100.00,WSW,247,5.0,-999.0,63,-99.99,,,-99.99,685.559998,,2013-08-12 19:00:00,
2013-08-12 15:43:00,80.0,66.0,-100.00,WSW,247,5.0,-999.0,63,-99.99,,,-99.99,685.559998,,2013-08-12 19:43:00,
2013-08-12 15:52:00,80.0,66.0,-100.00,WSW,247,5.0,-999.0,63,-99.99,,,-99.99,685.559998,,2013-08-12 19:52:00,
2013-08-12 16:00:00,80.0,65.0,-100.00,West,270,5.0,-999.0,60,-99.99,,,-99.99,469.799988,,2013-08-12 20:00:00,
2013-08-12 16:42:00,80.0,65.0,-100.00,West,270,5.0,-999.0,60,-99.99,,,-99.99,469.799988,,2013-08-12 20:42:00,
2013-08-12 16:52:00,80.0,65.0,-100.00,West,270,5.0,-999.0,60,-99.99,,,-99.99,469.799988,,2013-08-12 20:52:00,
2013-08-12 18:00:00,77.0,66.0,-100.00,NNW,337,6.0,-999.0,70,-99.99,,,-99.99,267.959991,,2013-08-12 22:00:00,
2013-08-12 18:43:00,77.0,66.0,-100.00,NNW,337,6.0,-999.0,70,-99.99,,,-99.99,267.959991,,2013-08-12 22:43:00,
2013-08-12 18:53:00,77.0,66.0,-100.00,NNW,337,6.0,-999.0,70,-99.99,,,-99.99,267.959991,,2013-08-12 22:53:00,
2013-08-12 20:00:00,69.0,68.0,-100.00,West,270,3.0,-999.0,94,0.53,,,-99.99,38.279999,,2013-08-13 00:00:00,
2013-08-12 20:45:00,69.0,68.0,-100.00,West,270,3.0,-999.0,94,0.53,,,-99.99,38.279999,,2013-08-13 00:45:00,
2013-08-12 20:54:00,69.0,68.0,-100.00,West,270,3.0,-999.0,94,0.53,,,-99.99,38.279999,,2013-08-13 00:54:00,
2013-08-12 21:00:00,68.0,68.0,-100.00,WNW,292,2.0,-999.0,102,-99.99,,,-99.99,31.320000,,2013-08-13 01:00:00,
2013-08-12 21:42:00,68.0,68.0,-100.00,WNW,292,2.0,-999.0,102,-99.99,,,-99.99,31.320000,,2013-08-13 01:42:00,
2013-08-12 21:55:00,68.0,68.0,-100.00,WNW,292,2.0,-999.0,102,-99.99,,,-99.99,31.320000,,2013-08-13 01:55:00,
2013-08-12 22:00:00,66.0,66.0,-100.00,WNW,292,2.0,-999.0,103,-99.99,,,-99.99,0.000000,,2013-08-13 02:00:00,
2013-08-12 22:43:00,66.0,66.0,-100.00,WNW,292,2.0,-999.0,103,-99.99,,,-99.99,0.000000,,2013-08-13 02:43:00,
2013-08-12 22:52:00,66.0,66.0,-100.00,WNW,292,2.0,-999.0,103,-99.99,,,-99.99,0.000000,,2013-08-13 02:52:00,